CZ-6A DEB

Satellite information

Favourite Embed

Satellite Type and Status

DEBRISIN ORBIT

Key statistics

Satellite CZ-6A DEB at a glance.

Uptime

389

Days in orbit

Revolutions

≈ 14.4

Per day

Orbit

LEO

Low Earth Orbit

Inclination

89.0

Latest

Satellite identification and parameters

Extended collection of information and parameters for CZ-6A DEB.

Object identification

Identified? True

Debris? True

Object name: CZ-6A DEB

International designator: 2024-140DL

Object number (NORAD): 60707

Object ID (CCSDS): 60707

Country: PEOPLES REPUBLIC OF CHINA (PRC)

Current information (Y/N): Y

RCS size: SMALL

Orbital parameters

Period: 100.283 minutes

Inclination: 88.9724 deg

SMA: 7150.079 km

Apoapsis: 797.813 km

Periapsis: 746.076 km

RAAN: 305.0151 deg

Eccentricy: 0.00361797

Argument of periapsis: 235.2958 deg

Mean anomaly: 124.4831 deg

Mean motion: 14.35940595 rev/day

Mean motion (dot): 0.00000737 rev/day2

B* drag term: 0.00024740345 1/REarth

Two-line elements (TLE)

Creation date: Aug. 30, 2025, 3:38 a.m.

Reference frame: TEME

Reference center: EARTH

Epoch: Aug. 29, 2025, 4:05 p.m. UTC

TLE line 0: 0 CZ-6A DEB

TLE line 1: 1 60707U 24140DL 25241.67056893 .00000737 00000-0 24740-3 0 9996

TLE line 2: 2 60707 88.9724 305.0151 0036180 235.2958 124.4831 14.35940595 54868

Live tracking on map

Real-time ground track for satellite CZ-6A DEB.

In-orbit conjunctions

A list of the most updated potential collisions computed for object CZ-6A DEB.

Target Orbit TCA Probability of collision Miss distance Type
COSMOS 2251 DEB LEO 2025-07-07 12:19:39 0.0001664574 387.0 (m) DEBRIS
IRIDIUM 33 DEB LEO 2025-05-04 07:00:03 0.0002662322 65.0 (m) DEBRIS
CZ-6A DEB LEO 2025-02-21 13:52:30 0.0001462396 898.0 (m) DEBRIS
NOAA 16 DEB SSO 2025-02-08 19:05:54 0.0002857079 593.0 (m) DEBRIS
COSMOS 1275 DEB LEO 2025-01-26 21:46:11 0.0002352172 437.0 (m) DEBRIS

Associated space launch

18 Low Earth Orbit communication satellites with Ku, Q and V band payloads for the G60 constellation operated by Shanghai Spacecom Satellite Technology (SSST) with funding backed by the Shanghai local government. Initial constellation will consist of 1296 satellites by 2027 with long term plans to expand it to 12000 satellites.

CZ-6A DEB was lifted into orbit during the mission ‘Long March 6A | G60 Polar Group 01’, on board a Long March 6A space rocket.

The launch took place on Aug. 6, 2024, 6:42 a.m. from Launch Complex 9A.

For more information about the launch, click the button.

Launch to space Long March 6A | G60 Polar Group 01
Long March 6A | G60 Polar Group 01

Agency: N/A

Status: Launch Successful

Launch date: Aug. 6, 2024, 6:42 a.m. UTC

Rocket: Long March 6A

Launch pad: Launch Complex 9A

Location: Taiyuan Satellite Launch Center, People's Republic of China

...

Latest news about this satellite

News about space launch
Brightness of first Chinese broadband constellation satellites alarms astronomers

The first satellites of a Chinese broadband constellation are significantly brighter than those of Western systems, posing a new challenge for astronomers.

News about space launch
Chinese rocket stage breaks up into cloud of more than 700 pieces of space debris

HELSINKI — A Chinese Long March 6A rocket’s upper stage has fragmented into a cloud of over 700 pieces of space debris, adding to concerns about long-term orbital safety. China […]

News about space launch
China's Thousand Sails Megaconstellation Kicks Off with Dangerous Debris Field

China's Thousand Sails Megaconstellation Kicks Off with Dangerous Debris Field


Newsletter sign-up

Weekly statistics, charts and insights to help you stay on top of the space industry.